Location: Baumgarten
(49.0970°N, 12.7493°E)
Time: 19:18:10
(UTC+00:00)

Cosmos 1340 - Pass Details

Date: 05 July 2020
Orbit: 502 x 505 km, 81.2° (Epoch: 12 August)

Event Time Altitude Azimuth Distance (km) Brightness Sun altitude
Exits shadow 23:34:18 29° 242° (WSW) 947 3.7 -18.1°
Maximum altitude 23:35:36 39° 287° (WNW) 763 3.6 -18.1°
Drops below altitude 10° 23:39:11 10° 358° (N) 1,725 6.6 -18.0°
Sets 23:41:25 0° 6° (N) 2,615 8.0 -18.0°
